Regional Weather Roundup
Issued by NWS

Home | Current Version | Previous Version | Graphics & Text | Print | Product List | Glossary On
Versions: 1 2 3 4 5 6 7 8 9 10 11 12 13 14 15 16 17 18 19 20 21 22 23 24 25 26 27 28 29 30 31 32 33 34 35 36 37 38 39 40 41 42 43 44 45 46 47 48 49 50
000
ASUS43 KMPX 230710
RWRMN
WEATHER ROUNDUP FOR MINNESOTA
NATIONAL WEATHER SERVICE TWIN CITIES/CHANHASSEN MN
100 AM CST TUE JAN 23 2018


NOTE: "FAIR" INDICATES FEW OR NO CLOUDS BELOW 12,000 FEET WITH NO
SIGNIFICANT WEATHER AND/OR OBSTRUCTIONS TO VISIBILITY. N/A MEANS
CURRENT SKY AND/OR WEATHER CONDITIONS ARE NOT AVAILABLE.

MNZ060>063-068>070-230800-
   Twin Cities Metro

CITY           SKY/WX    TMP DP  RH WIND       PRES   REMARKS
TWIN CITIES    FLURRIES  26  21  81 N16G25    29.84R WCI  14
ST PAUL        MIX PCPN  26  20  77 N16G24    29.85R WCI  14
CRYSTAL        CLOUDY    26  16  65 N13       29.84R WCI  15
BLAINE         CLOUDY    27  19  74 N15       29.84S WCI  15
LAKEVILLE        N/A     25  21  86 N12G18    29.82R WCI  14
EDEN PRAIRIE   CLOUDY    27  19  72 N14G22    29.83R WCI  16
SOUTH ST PAUL  CLOUDY    27  20  77 N12G22    29.83R WCI  16
LAKE ELMO      CLOUDY    27  21  80 N12G18    29.83R WCI  16
$$
MNZ001>005-007-008-013>017-022>024-027-028-230800-
   Northwest Minnesota

CITY           SKY/WX    TMP DP  RH WIND       PRES   REMARKS
BEMIDJI        CLOUDY    19  15  82 N5        29.98S WCI  13
HALLOCK        CLOUDY    21  16  79 CALM      30.07S
ROSEAU         CLOUDY    19  16  86 CALM      30.05S
WARROAD        CLOUDY    18  14  86 N6        30.05S WCI   9
THIEF RVR FALL CLOUDY    19  14  81 N8        30.05S WCI   9
CROOKSTON      CLOUDY    21  18  86 CALM      30.07R
FOSSTON        CLOUDY    19  16  86 NE7       30.01S WCI  10
DETROIT LAKES  CLOUDY    23  19  86 CALM      29.99S
MOORHEAD       CLOUDY    23  18  80 N9        30.04S WCI  13
PARK RAPIDS    CLOUDY    21  15  78 N13       29.95S WCI   9
MAHNOMEN       CLOUDY    21  16  83 NE9       30.00S WCI  10
$$
MNZ006-009>011-018-025>026-230800-
   North Central Minnesota

CITY           SKY/WX    TMP DP  RH WIND       PRES   REMARKS
BAUDETTE       CLOUDY    16  11  80 N8        30.01F WCI   5
FLAG ISLAND    CLOUDY    16  10  79 NE7       30.05S WCI   6
INTL FALLS     FAIR      11   6  81 N8        30.01R WCI  -1
WASKISH        CLOUDY    18  14  86 N8        30.01S WCI   7
BIG FORK       MOCLDY    12  10  92 N5        29.97R WCI   4
LONGVILLE      FAIR      18  16  93 NW5       29.95R WCI  11
GRAND RAPIDS   MOCLDY    15  12  88 N10       29.95R WCI   2
CRANE LAKE     FAIR       5   3  92 N5        30.01R WCI  -4
ORR            FAIR       7   3  85 CALM      29.94R
COOK           CLOUDY     9   5  85 N5        29.95S WCI   0
WALKER         CLOUDY    20  15  81 N9        29.96S WCI   9
$$
MNZ012-019>021-037-230800-
   Northeast Minnesota

CITY           SKY/WX    TMP DP  RH WIND       PRES   REMARKS
DULUTH         FAIR      14   9  80 N13       29.85S WCI   0
HIBBING        FAIR      10   7  87 N10       29.91S WCI  -4
EVELETH        FAIR      12   6  77 N3        29.92R
DULUTH HARBOR  CLOUDY    21  16  79 N18       29.91S WCI   6
TWO HARBORS    FAIR      16   9  73 N3        29.85S
SILVER BAY     FAIR      12   7  79 NE3       29.85S
GRAND MARAIS     N/A     14   5  67 E9G22     29.87R WCI   2
G MARAIS ARPRT CLOUDY     5  -2  72 N14       29.80R WCI -12
$$
MNZ029>031-032-039>041-046>048-054>057-064-230800-
   West Central Minnesota

CITY           SKY/WX    TMP DP  RH WIND       PRES   REMARKS
FERGUS FALLS   CLOUDY    23  18  80 N10       29.99S WCI  12
WHEATON        CLOUDY    25  19  80 N10       30.03S WCI  15
MORRIS         CLOUDY    25  19  80 N17       29.97R WCI  11
ALEXANDRIA     CLOUDY    22  18  85 N10       29.94S WCI  11
ELBOW LAKE     CLOUDY    23  18  82 N12       29.98F WCI  11
WADENA         CLOUDY    19  16  86 N10       29.95S WCI   8
GLENWOOD       FAIR      21  18  86 N16       29.94S WCI   7
APPLETON       CLOUDY    27  19  74 N20       29.97F WCI  13
BENSON         CLOUDY    25  18  74 NE15      29.98R WCI  12
ORTONVILLE     CLOUDY    23  19  86 N20       29.99R WCI   8
MADISON        CLOUDY    27  23  86 N17       29.99R WCI  14
WILLMAR        CLOUDY    25  18  74 N16G24    29.95R WCI  12
$$
MNZ033>034-036-042>043-049>051-058-059-230800-
   Central Minnesota

CITY           SKY/WX    TMP DP  RH WIND       PRES   REMARKS
ST CLOUD       FAIR      22  16  78 N10       29.89S WCI  11
SAUK CENTRE      N/A     22  17  79 N13       29.93S WCI  10
PAYNESVILLE    FAIR      23  19  83 N8        29.92R WCI  14
AITKIN         FAIR      18  12  79 NW8       29.91R WCI   7
PINE RIVER     FAIR      18  14  86 NW8       29.97S WCI   7
BRAINERD       FAIR      21  14  74 N10       29.92S WCI  10
STAPLES        CLOUDY    21  16  79 N13       29.95R WCI   9
LONG PRAIRIE   FAIR      21  18  86 NW13G18   29.93S WCI   9
LITTLE FALLS   FAIR      23  12  63 N8        29.92R WCI  14
LITCHFIELD     FAIR      25  19  80 N14G22    29.90R WCI  13
BUFFALO        MOCLDY    25  18  74 N13G18    29.88R WCI  13
MAPLE LAKE     FAIR      25  19  79 MISG      29.89R
HUTCHINSON     CLOUDY    27  21  80 N22G28    29.89R WCI  12
$$
MNZ037-044-045-052-053-230800-
   East Central Minnesota

CITY           SKY/WX    TMP DP  RH WIND       PRES   REMARKS
PRINCETON      FAIR      23  16  74 NW12      29.88R WCI  12
MORA           FAIR      21  14  73 N6G16     29.89R WCI  14
CAMBRIDGE        N/A     25  16  68 N9        29.87R WCI  15
RUSH CITY      MOCLDY    22  15  74 N6        29.86R WCI  14
MOOSE LAKE     FAIR      19  12  73 N7        29.86S WCI  10
HINCKLEY       FAIR      21  14  73 N10G18    29.86S WCI  10
CLOQUET        FAIR      16   9  73 N13G21    29.87S WCI   2
MCGREGOR       FAIR      19  14  79 N8        29.90S WCI   9
$$
MNZ071>073-080-081-089-090-097-098-230800-
   Southwest Minnesota

CITY           SKY/WX    TMP DP  RH WIND       PRES   REMARKS
MONTEVIDEO     CLOUDY    25  19  80 N12G17    29.96S WCI  14
GRANITE FALLS  CLOUDY    27  21  80 NW20      29.97R WCI  13
CANBY          CLOUDY    25  23  91 W18       29.99R WCI  12
MARSHALL       CLOUDY    25  21  85 N16       29.95R WCI  12
REDWOOD FALLS  CLOUDY    25  20  81 N14G24    29.92R WCI  13
OLIVIA         CLOUDY    27  19  74 N18G24    29.92R WCI  13
PIPESTONE      CLOUDY    21  19  93 N10G23    29.93R WCI  10
WINDOM         CLOUDY    25  10  54 NW25      29.88R WCI   9
JACKSON        CLOUDY    27  23  86 N20G28    29.87R WCI  13
TRACY          CLOUDY    26  22  87 N21G26    29.92R WCI  11
SLAYTON        CLOUDY    24  21  90 N24       29.91S WCI   8
$$
MNZ065>067-074>077-082>085-091>093-230800-
   South Central Minnesota

CITY           SKY/WX    TMP DP  RH WIND       PRES   REMARKS
MANKATO        CLOUDY    26  23  88 N20       29.85R WCI  12
NEW ULM        CLOUDY    25  19  80 NW16      29.88R WCI  12
ST JAMES       CLOUDY    25  21  86 NW22      29.89R WCI  10
FAIRMONT       CLOUDY    26  24  92 NW28      29.85R WCI  10
GLENCOE        MOCLDY    27  21  80 N14G20    29.86R WCI  15
FARIBAULT      FLURRIES  27  21  80 N13       29.81R WCI  16
OWATONNA         N/A    N/A N/A N/A N21       29.79R
WASECA         CLOUDY    27  23  86 N20G25    29.82R WCI  13
ALBERT LEA     LGT SNOW  25  21  86 N18G26    29.76R WCI  11
$$
MNZ078>079-086>088-094>096-230800-
   Southeast Minnesota

CITY           SKY/WX    TMP DP  RH WIND       PRES   REMARKS
ROCHESTER      CLOUDY    24  22  91 N23G35    29.71R WCI   9
RED WING       LGT SNOW  27  21  80 N6        29.78R WCI  20
STANTON        LGT SNOW  26  23  87 N13       29.80R WCI  15
DODGE CENTER   LGT SNOW  25  21  86 N17       29.73R WCI  11
WINONA         LGT SNOW  30  27  86 NW10G21   29.70R WCI  21
PRESTON        LGT SNOW  24  22  91 N17       29.68R WCI  11
$$
ABBREVIATIONS USED IN REMARKS
   TC - TEMPERATURES IN CELSIUS
  WCI - WIND CHILL INDEX
   HX - HEAT INDEX
  VSB - VISIBILITY
$$




USA.gov is the U.S. government's official web portal to all federal, state and local government web resources and services.